{"data":{"norad_id":58774,"intl_designator":"2024-011K","name":"STARLINK-31122","alt_names":[],"object_type":"PAYLOAD","status":"ACTIVE","operator":null,"country":"US","launch_date":"2024-01-14","launch_site_code":"AFWTR","launch_vehicle":null,"mission":null,"orbit_class":"UNKNOWN","rcs_meters":null,"size_class":null,"mass_kg":null,"dimensions":null,"purposes":["comms"],"wikipedia_slug":null,"has_3d_model":false,"image_url":null,"decayed_at":null,"tle_current":{"epoch":"2026-05-24T22:43:09.522336Z","epoch_age_seconds":79627,"freshness":"FRESH","line1":"1 58774U 24011K   26144.94663799  .00000157  00000+0  17428-4 0  9997","line2":"2 58774  53.1610  19.6013 0001017  94.2397 265.8720 15.30193657131940","mean_motion":15.30193657,"eccentricity":0.0001017,"inclination_deg":53.161,"raan_deg":19.6013,"arg_perigee_deg":94.2397,"mean_anomaly_deg":265.872,"bstar":1.7428e-5,"rev_number":13194,"period_min":94.10573579446,"perigee_km":474.53702070784,"apogee_km":475.93099637098,"semimajor_km":6853.3710085394,"source":"CELESTRAK","updated_at":"2026-05-25T13:38:18.745826Z"}}}